This demonstration page uses our WeatherBlox Daily Observations layout. Learn more.

Left ArrowRight Arrow

Hourly Observations for July 30, 2020

Temp ( °F °C ) Dew Point ( °F °C ) Humidity (%) Winds ( mph kmh ) Pressure ( in mb ) Visibility ( mi km ) Precip ( " mm )
12:46 am 00:46 Cloudy 73 22.8 68 20 84 84 NNE 13 20 29.85 1011 10 16.0934 0 0
12:54 am 00:54 Cloudy 73 22.8 68 20 84 84 NNE 14 22 29.86 1011 10 16.0934 0 0
1:18 am 01:18 Cloudy 72 22.2 68 20 87 87 NNE 15 24 29.85 1011 10 16.0934 0 0
1:51 am 01:51 Partly Cloudy 72 22 66 19 83 83 NE 10 17 29.84 1010 10 16.0934 0 0
1:54 am 01:54 Mostly Clear 71 21.7 67 19.4 87 87 NE 8 13 29.84 1011 10 16.0934 0 0
2:54 am 02:54 Partly Cloudy 70 21.1 66 18.9 87 87 Calm 29.85 1011 10 16.0934 0 0
3:25 am 03:25 Partly Cloudy 70 21.1 67 19.4 90 90 N 7 11 29.85 1011 10 16.0934 0 0
3:39 am 03:39 Mostly Cloudy 70 21.1 67 19.4 90 90 N 7 11 29.85 1011 10 16.0934 0 0
3:52 am 03:52 Cloudy 70 21 66 19 88 88 N 8 13 29.85 1011 10 16.0934 0 0
3:54 am 03:54 Cloudy 70 21.1 67 19.4 90 90 N 8 13 29.86 1011 10 16.0934 0 0
4:24 am 04:24 Cloudy 70 21.1 66 18.9 87 87 N 6 9 29.86 1011 10 16.0934 0 0
4:32 am 04:32 Cloudy 70 21.1 66 18.9 87 87 N 7 11 29.86 1011 10 16.0934 0 0
4:54 am 04:54 Cloudy 70 21.1 65 18.3 84 84 NE 9 15 29.87 1011 10 16.0934 0 0
5:54 am 05:54 Cloudy 69 20.6 65 18.3 87 87 N 8 13 29.86 1011 10 16.0934 0 0
6:23 am 06:23 Cloudy 69 20.6 65 18.3 87 87 NNE 10 17 29.86 1011 10 16.0934 0 0
6:54 am 06:54 Cloudy 69 20.6 65 18.3 87 87 NNE 9 15 29.87 1012 9 14.48406 0 0
7:54 am 07:54 Cloudy 70 21.1 66 18.9 87 87 N 10 17 29.88 1012 9 14.48406 0.01 0.254
8:54 am 08:54 Mostly Cloudy with Light Rain 71 21.7 66 18.9 84 84 N 12 19 29.91 1013 10 16.0934 0.001 0.001
9:09 am 09:09 Mostly Cloudy 71 21.7 66 18.9 84 84 N 12 19 29.9 1013 9 14.48406 0.001 0.001
9:54 am 09:54 Cloudy with Light Rain 69 20.6 66 18.9 90 90 N 13 20 29.92 1013 7 11.26538 0.01 0.254
10:54 am 10:54 Cloudy 73 22.8 66 18.9 79 79 NNE 16 26 29.93 1013 9 14.48406 0.01 0.254
11:54 am 11:54 Mostly Cloudy 79 26.1 66 18.9 65 65 NE 17 28 29.93 1014 9 14.48406 0 0
12:54 pm 12:54 Mostly Sunny 81 27.2 66 18.9 61 61 NE 16 26 29.93 1014 9 14.48406 0 0
1:54 pm 13:54 Mostly Cloudy 80 26.7 64 17.8 58 58 NNE 14 22 29.93 1014 9 14.48406 0 0
2:54 pm 14:54 Partly Cloudy 80 26.7 63 17.2 56 56 N 20 31 29.94 1014 9 14.48406 0 0
3:54 pm 15:54 Sunny 80 26.7 62 16.7 54 54 NNE 18 30 29.94 1014 10 16.0934 0 0
4:54 pm 16:54 Sunny 80 26.7 62 16.7 54 54 NNE 18 30 29.95 1014 10 16.0934 0 0
5:54 pm 17:54 Sunny 79 26.1 60 15.6 52 52 NNE 17 28 29.96 1015 10 16.0934 0 0
6:54 pm 18:54 Sunny 78 25.6 62 16.7 58 58 NNE 13 20 29.98 1015 10 16.0934 0 0
7:54 pm 19:54 Sunny 75 23.9 60 15.6 60 60 NNE 10 17 29.98 1015 10 16.0934 0 0
8:54 pm 20:54 Clear 71 21.7 61 16.1 71 71 N 10 17 29.99 1016 10 16.0934 0 0
9:54 pm 21:54 Clear 70 21.1 61 16.1 73 73 N 12 19 30.01 1016 10 16.0934 0 0
10:54 pm 22:54 Clear 68 20 61 16.1 78 78 N 10 17 30.02 1017 10 16.0934 0 0
11:54 pm 23:54 Clear 68 20 60 15.6 76 76 NNW 10 17 30.02 1017 10 16.0934 0 0

Powered by AerisWeather